1998-067TQ

Last updated on Thu Feb 16 2023 00:02:07 GMT+0000 (Coordinated Universal Time)

1 53305U 98067TQ 23044.50516968 .05164572 12040-4 15471-2 0 9990 2 53305 51.6197 198.3937 0011158 294.8420 65.1440 16.26070248 32395

Satellite not in orbit

1998-067TQ